Volver al catálogo

STARLINK-4725

ActivoComunicacionesVLEO
NORAD 53700·PAYLOAD·🇺🇸 United States

Lanzado Sep 5, 2022 desde Cape Canaveral Space Force Station

Loading…

Próximos Pases (próximas 24 horas)

TLE

ActualizadoSource: CelesTrak SupGP

Época: Sep 15, 2026, 03:00 UTC

1 53700C 22107A   26258.12548611  .00661270  00000+0  20201-1 0  2583
2 53700  53.1606 110.8603 0001179  80.9996 292.0492 15.33006826    19

Sigue STARLINK-4725 en tiempo real con AllMySat

Download on the App Store